Wind_Speed
30 24 22 23 24 26 27 27 23 20 21 22 21 21 23 22 20 19 19 18 17 17 16 17 17 17 18 18 18 18 18 18 18 18 18 17 16 16 16 15 15 15 15 15
33 28 23 23 24 24 26 26 25 22 21 21 22 24 24 23 22 20 19 18 18 17 17 17 17 17 18 18 18 18 18 18 18 18 18 17 16 16 15 16 16 15 15 15
33 29 25 25 22 23 25 25 26 26 24 23 25 27 26 24 22 20 19 18 18 18 17 17 18 18 18 18 18 19 19 19 18 18 18 17 16 16 16 16 16 15 15 15
31 29 29 26 24 23 23 25 26 27 26 25 27 27 26 24 22 21 20 19 18 19 18 18 18 18 19 20 20 20 19 18 18 18 18 17 17 16 16 16 15 16 16 16
30 29 29 27 25 25 26 26 27 27 26 26 27 27 25 23 22 21 20 20 19 19 19 19 20 20 20 20 20 19 19 19 19 19 18 18 17 17 16 16 16 16 17 16
30 27 26 26 25 25 25 27 28 27 26 27 27 26 24 23 21 21 20 20 20 20 20 20 20 21 21 20 20 19 19 19 19 19 18 18 17 17 17 17 17 17 17 17
31 28 26 24 25 26 27 29 28 27 27 28 28 26 25 23 22 21 21 21 22 22 22 21 21 21 21 21 20 20 20 20 20 20 18 18 18 18 18 18 18 18 18 18
32 30 28 27 27 27 28 28 28 28 28 27 27 27 26 25 23 23 23 23 23 23 23 22 22 22 22 22 21 21 20 20 20 20 19 18 18 18 18 18 18 18 18 19
34 34 32 31 30 30 29 28 28 28 28 28 27 27 27 26 25 24 24 24 25 25 24 23 23 24 24 23 23 22 20 21 21 20 19 19 19 19 19 19 19 19 19 19
35 36 36 34 33 31 30 30 30 30 29 29 29 28 28 27 26 26 26 26 25 25 25 25 25 25 24 24 23 22 21 21 21 20 20 19 19 20 20 20 20 20 20 21
36 36 37 37 36 34 33 31 31 30 30 30 29 28 28 27 27 27 27 26 26 26 26 25 25 24 24 23 23 21 21 22 21 21 20 20 20 20 21 22 22 22 22 22
38 38 37 38 36 35 34 33 32 32 32 31 30 29 28 28 27 27 27 28 27 27 26 26 25 25 24 23 22 22 22 22 22 22 21 21 21 22 22 23 23 24 24 23
40 39 37 37 36 34 32 32 32 32 32 31 30 30 29 29 29 28 28 28 28 27 27 26 25 25 25 24 24 23 23 24 24 23 23 22 23 23 23 24 24 24 24 24
38 37 36 36 36 34 34 33 32 32 32 31 31 31 30 30 30 30 29 29 28 28 27 27 26 26 25 25 25 25 25 25 24 24 23 23 24 24 25 25 25 25 25 24
37 36 35 34 35 35 34 33 33 32 32 32 32 31 31 31 31 30 30 29 29 29 28 27 27 26 26 25 25 26 26 25 25 25 25 25 25 25 26 26 26 26 26 26
37 37 37 36 35 35 34 34 34 34 33 33 32 31 31 31 31 31 31 30 30 29 29 28 27 27 26 27 27 26 26 25 26 26 26 25 26 26 27 26 26 26 26 26
36 36 37 37 36 36 35 35 35 35 34 34 34 32 32 32 32 32 31 30 30 30 29 29 28 28 27 27 27 27 26 26 26 26 26 26 27 28 28 28 27 26 26 27
37 36 36 35 35 36 35 35 34 34 34 33 32 32 32 32 32 31 31 30 30 30 29 30 29 29 28 28 27 27 27 26 26 27 27 28 28 28 28 27 27 27 27 28
36 36 36 35 35 35 34 34 34 33 33 33 32 32 31 31 31 30 30 29 30 30 29 29 29 29 29 29 28 28 27 27 27 28 28 28 27 27 26 26 27 27 28 28
34 33 33 34 34 34 33 33 33 32 32 32 32 31 31 30 29 29 29 29 29 29 29 29 28 28 28 28 27 27 27 27 27 28 28 27 27 26 27 27 27 28 28 28
32 31 31 32 32 32 32 32 32 31 31 31 31 30 30 29 29 29 28 28 28 28 28 28 28 28 27 27 27 27 27 27 27 27 27 26 25 25 26 27 27 28 28 29
30 29 30 30 30 30 30 30 30 29 29 29 30 29 29 28 28 28 28 28 28 28 28 27 27 27 26 26 26 26 26 26 26 26 25 24 25 25 26 27 28 29 30 30
27 28 29 29 29 29 29 29 29 28 28 28 28 28 28 27 27 27 26 26 26 26 26 25 24 24 25 25 25 25 25 24 24 24 24 24 24 25 26 27 28 30 30 31
25 26 27 27 28 27 27 27 27 27 27 26 26 26 26 26 26 25 25 24 24 24 23 23 22 22 23 24 23 23 22 23 23 23 23 24 25 26 27 28 29 30 29 29
24 24 24 25 25 25 25 25 26 25 25 25 25 25 25 25 24 24 24 23 23 23 22 21 21 21 21 22 22 22 22 23 23 22 22 24 25 25 26 26 27 27 28 28
22 22 22 22 23 23 23 23 23 23 23 23 23 23 24 23 23 22 22 21 21 21 20 19 19 20 20 21 21 21 22 21 21 22 23 23 24 25 25 25 26 27 27 27
20 20 20 20 21 21 19 20 20 21 21 21 22 21 21 20 19 19 19 19 19 19 19 19 19 20 21 20 21 21 20 21 21 22 23 23 24 24 24 24 25 25 26 26
Wind_Direction
211 215 225 235 236 231 227 228 230 233 239 253 260 264 268 269 272 273 278 280 281 286 290 293 297 300 303 307 310 310 313 315 317 318 318 316 315 315 314 314 313 310 308 309
215 211 215 228 234 233 229 227 225 228 235 244 255 258 264 268 271 273 276 279 280 284 289 292 295 299 304 306 308 309 313 315 316 317 318 317 314 313 314 313 313 310 308 308
217 214 217 225 227 228 228 228 226 227 230 238 249 255 260 265 270 272 275 275 278 283 289 292 295 299 304 307 308 310 311 312 314 315 316 316 314 313 313 314 313 310 310 309
216 214 221 225 227 229 229 230 231 229 231 239 249 255 260 265 268 269 271 273 276 281 287 291 294 297 302 304 305 307 309 311 313 314 313 314 314 313 313 315 316 314 311 310
213 218 224 226 225 225 226 227 230 232 233 237 247 254 260 263 266 267 268 271 275 279 284 288 291 295 299 303 305 306 307 310 311 312 311 311 311 312 314 314 313 313 313 314
211 214 224 229 227 226 226 230 230 231 233 237 244 251 257 261 263 264 267 269 273 277 281 286 289 293 298 301 303 304 306 308 309 310 311 310 310 311 313 313 314 315 314 314
211 215 221 224 227 227 227 231 232 231 232 236 243 249 254 258 259 262 267 271 273 275 280 283 286 290 295 297 299 300 302 305 306 307 308 308 310 310 311 311 312 313 313 312
213 217 223 223 226 226 227 230 231 232 235 239 245 250 254 257 261 263 266 269 271 273 276 280 283 288 291 293 296 296 298 300 303 303 303 304 306 309 310 309 310 311 311 311
217 219 225 227 228 230 231 232 233 236 239 241 244 248 253 256 260 262 264 267 268 272 274 278 282 286 288 290 292 292 293 297 299 300 302 302 304 307 308 307 307 309 309 310
217 219 222 225 228 229 230 234 235 236 240 243 246 250 254 257 259 260 262 265 267 270 273 276 281 284 286 288 289 288 290 293 296 298 300 300 301 304 306 307 307 307 308 309
220 222 224 226 228 232 236 238 239 239 242 245 248 251 254 255 257 259 259 262 266 269 271 275 279 281 284 287 286 286 287 290 293 297 297 297 299 301 304 306 305 305 306 307
219 223 226 228 231 235 237 240 241 242 245 248 250 251 253 254 256 258 258 261 264 267 270 273 276 278 280 284 286 286 287 289 291 293 295 294 296 299 302 304 305 305 305 305
225 227 230 232 234 237 239 241 243 244 246 248 250 251 252 253 255 257 258 259 262 266 269 272 274 276 279 282 283 283 285 287 288 290 292 294 295 298 300 302 303 303 303 303
225 227 229 233 236 237 239 241 244 246 247 249 250 251 252 254 255 256 257 258 261 264 268 271 272 274 276 279 280 283 285 285 285 286 289 292 294 296 299 301 301 302 301 301
228 229 231 232 234 236 239 241 244 246 248 249 250 251 252 253 255 256 257 257 259 262 266 269 271 273 274 276 280 284 285 283 283 285 288 290 291 294 297 298 299 299 300 300
230 232 235 236 237 238 240 241 244 246 248 250 251 251 251 253 254 256 257 258 259 261 263 266 271 273 274 276 279 282 282 281 282 285 287 287 290 293 296 297 297 298 298 299
232 233 235 237 237 238 240 242 244 247 249 250 250 250 252 253 255 257 257 257 259 261 263 266 270 272 272 274 276 279 280 281 282 285 286 288 291 293 294 296 297 297 298 299
232 233 234 235 236 238 239 241 244 246 247 249 250 251 252 254 255 256 257 256 258 261 264 266 268 270 272 274 274 276 279 281 282 285 286 288 290 291 293 295 297 298 299 300
232 232 233 235 237 240 241 242 243 245 246 247 249 250 251 252 253 254 255 257 259 260 263 265 266 267 269 272 274 277 277 278 281 284 286 288 288 290 292 295 297 298 299 300
231 231 232 234 236 238 239 240 242 244 245 247 249 249 249 250 252 254 256 257 258 260 262 265 266 267 270 271 272 273 275 278 281 284 286 287 288 289 291 292 294 297 298 299
230 231 232 233 235 237 238 239 241 243 244 246 248 248 248 250 252 254 256 257 259 261 262 264 265 265 267 270 272 273 275 277 280 282 283 284 286 288 290 292 295 297 299 300
228 230 231 233 235 236 237 239 240 241 243 245 246 247 249 251 251 252 254 256 258 259 261 263 263 264 266 269 272 274 275 277 279 280 282 284 286 289 292 294 296 298 300 300
228 230 231 232 233 234 236 237 239 240 241 242 244 245 247 249 249 251 253 256 258 260 260 261 263 265 266 268 270 271 273 276 279 281 282 285 289 292 293 294 296 298 300 301
228 229 229 230 232 233 234 234 235 238 239 240 242 244 245 247 249 250 253 256 259 260 261 262 264 264 265 267 267 269 273 277 279 281 284 289 292 294 294 295 297 299 300 302
226 225 225 226 229 231 232 232 234 236 236 238 241 244 246 248 249 250 252 254 258 260 259 260 262 263 265 267 270 273 275 277 278 281 286 291 294 295 298 299 300 302 303 304
223 223 222 224 226 227 228 229 232 234 236 237 241 244 247 248 249 251 251 250 253 254 255 257 260 265 269 271 273 277 278 280 282 285 289 293 296 298 300 302 303 304 305 306
223 222 222 224 224 224 226 229 231 233 235 238 241 242 242 242 243 245 246 248 252 255 256 259 264 269 271 274 277 277 278 281 285 288 291 295 297 299 301 302 303 305 306 307
Height
5861 5866 5870 5872 5875 5879 5883 5887 5891 5894 5894 5893 5893 5893 5893 5894 5894 5894 5894 5894 5893 5893 5893 5892 5891 5890 5889 5888 5886 5884 5883 5881 5879 5877 5875 5873 5871 5870 5869 5868 5866 5865 5864 5863
5854 5859 5864 5867 5870 5874 5877 5881 5885 5888 5889 5889 5889 5889 5889 5890 5890 5890 5890 5890 5890 5890 5890 5889 5888 5887 5886 5885 5883 5881 5880 5878 5876 5874 5872 5870 5869 5868 5866 5865 5864 5862 5861 5860
5848 5854 5858 5862 5865 5869 5872 5875 5879 5882 5884 5884 5884 5884 5884 5885 5886 5886 5887 5887 5887 5887 5886 5886 5885 5884 5883 5882 5880 5878 5877 5875 5874 5872 5870 5868 5866 5865 5864 5862 5860 5859 5858 5857
5843 5849 5852 5859 5862 5864 5867 5870 5873 5875 5878 5880 5879 5879 5880 5881 5882 5883 5883 5883 5884 5883 5883 5883 5882 5881 5880 5879 5877 5875 5874 5873 5871 5869 5868 5866 5864 5862 5861 5859 5857 5856 5855 5854
5838 5842 5847 5852 5855 5859 5862 5864 5866 5869 5872 5874 5874 5875 5876 5877 5878 5879 5879 5879 5880 5880 5879 5879 5879 5878 5877 5875 5874 5872 5871 5869 5868 5866 5864 5863 5861 5860 5858 5857 5855 5853 5852 5851
5832 5837 5842 5846 5849 5852 5856 5858 5860 5863 5866 5868 5869 5871 5872 5872 5873 5874 5873 5874 5875 5876 5875 5875 5875 5874 5873 5872 5870 5869 5867 5866 5864 5863 5861 5860 5859 5857 5856 5854 5852 5851 5850 5848
5825 5830 5835 5838 5841 5845 5850 5852 5854 5857 5860 5862 5863 5865 5867 5867 5869 5870 5870 5870 5871 5871 5871 5871 5870 5870 5869 5868 5866 5865 5864 5862 5861 5859 5858 5857 5855 5854 5853 5851 5850 5848 5847 5845
5820 5824 5829 5831 5835 5838 5840 5844 5848 5851 5854 5856 5858 5860 5861 5862 5863 5864 5865 5866 5866 5866 5866 5866 5866 5865 5864 5863 5862 5861 5859 5858 5857 5856 5854 5853 5852 5850 5849 5847 5846 5845 5843 5841
5813 5818 5820 5823 5827 5830 5834 5838 5842 5845 5848 5850 5852 5854 5855 5857 5859 5860 5860 5861 5861 5861 5861 5861 5860 5860 5859 5858 5857 5856 5855 5854 5853 5852 5850 5849 5848 5846 5845 5843 5842 5841 5839 5837
5805 5809 5813 5816 5820 5824 5828 5831 5835 5838 5841 5843 5846 5848 5850 5851 5853 5854 5854 5855 5855 5855 5855 5855 5855 5855 5854 5853 5852 5851 5850 5849 5848 5847 5846 5845 5843 5842 5841 5839 5837 5836 5834 5832
5798 5802 5806 5810 5814 5818 5822 5826 5829 5831 5834 5837 5839 5842 5843 5845 5846 5847 5848 5849 5849 5850 5850 5850 5850 5849 5848 5848 5847 5846 5845 5845 5844 5843 5842 5840 5839 5838 5836 5834 5833 5831 5829 5827
5790 5794 5798 5802 5807 5811 5815 5819 5822 5825 5828 5830 5833 5835 5836 5838 5839 5841 5842 5843 5843 5843 5844 5844 5844 5843 5843 5843 5842 5841 5841 5840 5839 5838 5837 5836 5834 5833 5831 5829 5827 5826 5824 5822
5782 5786 5790 5795 5801 5805 5809 5812 5815 5818 5821 5823 5825 5827 5829 5831 5832 5834 5835 5836 5837 5837 5838 5838 5838 5838 5838 5838 5837 5836 5835 5835 5834 5833 5832 5831 5829 5828 5826 5824 5822 5820 5818 5816
5774 5779 5784 5789 5794 5798 5801 5805 5808 5811 5813 5816 5818 5820 5822 5824 5825 5827 5828 5829 5830 5831 5832 5832 5832 5832 5832 5832 5831 5830 5829 5828 5828 5827 5826 5825 5824 5822 5820 5819 5817 5815 5813 5810
5766 5772 5777 5781 5785 5790 5794 5798 5801 5803 5806 5808 5810 5813 5815 5816 5818 5819 5821 5822 5823 5824 5825 5826 5826 5826 5826 5825 5825 5824 5824 5823 5822 5821 5820 5819 5818 5816 5815 5813 5811 5809 5806 5804
5761 5766 5770 5774 5778 5782 5786 5790 5793 5796 5798 5800 5803 5805 5807 5809 5811 5812 5814 5815 5816 5817 5818 5819 5819 5819 5819 5819 5819 5818 5818 5817 5816 5815 5814 5813 5811 5810 5808 5806 5805 5802 5800 5797
5755 5759 5763 5767 5771 5775 5778 5782 5785 5788 5790 5792 5795 5797 5799 5801 5803 5804 5806 5808 5809 5810 5811 5812 5812 5812 5813 5813 5812 5812 5811 5810 5809 5809 5807 5806 5805 5803 5801 5799 5797 5795 5793 5790
5748 5752 5756 5760 5763 5767 5771 5774 5777 5779 5782 5784 5787 5789 5791 5793 5795 5797 5799 5800 5802 5803 5804 5804 5805 5805 5806 5805 5805 5805 5804 5803 5802 5802 5800 5799 5797 5796 5794 5792 5790 5788 5785 5783
5741 5745 5749 5752 5756 5760 5763 5766 5769 5771 5774 5776 5779 5781 5783 5785 5787 5789 5791 5793 5794 5795 5796 5797 5797 5798 5798 5798 5798 5797 5797 5796 5795 5794 5793 5791 5790 5788 5787 5785 5783 5781 5778 5776
5734 5737 5741 5745 5749 5752 5755 5758 5761 5764 5766 5769 5771 5774 5776 5778 5780 5782 5784 5785 5787 5788 5789 5789 5790 5790 5790 5790 5790 5790 5789 5789 5788 5787 5785 5784 5783 5781 5779 5778 5776 5773 5771 5769
5727 5731 5735 5738 5742 5745 5748 5751 5754 5756 5759 5761 5764 5766 5768 5771 5773 5774 5776 5778 5779 5780 5781 5782 5782 5783 5783 5783 5783 5782 5782 5781 5781 5780 5778 5777 5776 5774 5772 5770 5768 5766 5764 5761
5721 5724 5728 5731 5735 5738 5741 5744 5746 5749 5752 5754 5756 5759 5761 5763 5765 5767 5769 5771 5772 5773 5774 5774 5775 5775 5775 5775 5775 5775 5775 5774 5773 5772 5771 5770 5769 5767 5765 5763 5761 5759 5756 5753
5715 5719 5722 5725 5728 5731 5734 5737 5740 5742 5745 5747 5749 5752 5754 5756 5758 5760 5762 5764 5765 5766 5766 5767 5768 5768 5768 5768 5768 5768 5768 5767 5766 5765 5764 5763 5762 5760 5758 5756 5753 5751 5748 5746
5709 5713 5716 5719 5722 5725 5728 5731 5734 5736 5738 5740 5743 5745 5748 5750 5752 5754 5755 5757 5758 5759 5760 5761 5761 5761 5762 5762 5762 5762 5761 5761 5760 5759 5757 5756 5755 5753 5751 5748 5746 5743 5741 5738
5705 5707 5710 5713 5717 5720 5723 5725 5728 5730 5732 5735 5737 5739 5741 5744 5746 5747 5749 5751 5752 5753 5754 5754 5755 5755 5756 5756 5756 5755 5755 5754 5753 5752 5751 5750 5748 5746 5743 5741 5738 5736 5733 5730
5701 5703 5706 5709 5712 5715 5718 5720 5722 5725 5727 5730 5732 5734 5736 5738 5740 5742 5743 5745 5746 5747 5748 5749 5749 5750 5750 5750 5750 5749 5749 5748 5747 5745 5744 5743 5741 5738 5736 5734 5731 5728 5726 5723
5697 5699 5702 5704 5708 5711 5713 5716 5718 5721 5723 5725 5727 5729 5731 5733 5735 5736 5738 5739 5741 5742 5743 5744 5744 5744 5744 5744 5744 5743 5742 5741 5740 5739 5737 5736 5734 5731 5729 5727 5724 5722 5719 5716